User: anonymous
Location: Luz Observatory
(34.5000°N, 117.2833°W)
Time: 17:09:31
(UTC-07:00)
Language:

Cosmos 1452 Rocket - Orbit

View from above orbital plane
View from above orbital plane
View from above satellite
View from above satellite

Ground track
Ground track

The orbit data is extracted from the following two-line orbital elements,

1 13992U 83031B   14241.23981148  .00000155  00000-0  62669-4 0  4895
2 13992 074.0524 083.0103 0005767 312.2832 180.5736 14.35764296641973
Epoch (UTC): 29 August 2014 05:45:19
Eccentricity: 0.0005767
inclination: 74.0524°
perigee height: 768 km
apogee height: 776 km
right ascension of ascending node: 83.0103°
argument of perigee: 312.2832°
revolutions per day: 14.35764296
mean anomaly at epoch: 180.5736°
orbit number at epoch: 64197

The dashed part of the orbit path shows where the satellite is in the earth's shadow,  

DLR